Regional Weather Roundup
Issued by NWS

Home | Current Version | Previous Version | Text Only | Print | Product List | Glossary On
Versions: 1 2 3 4 5 6 7 8 9 10 11 12 13 14 15 16 17 18 19 20 21 22 23 24 25 26 27 28 29 30 31 32 33 34 35 36 37 38 39 40 41 42 43 44 45 46 47 48 49 50
337
ASUS44 KBMX 221710
RWRAL

ALABAMA REGIONAL WEATHER ROUNDUP
NATIONAL WEATHER SERVICE BIRMINGHAM AL
1100 AM CST SUN JAN 22 2017

NOTE: "FAIR" INDICATES FEW OR NO CLOUDS BELOW 12,000 FEET
WITH NO SIGNIFICANT WEATHER AND/OR OBSTRUCTIONS TO VISIBILITY.

THE REMARK "TC" DENOTES TEMPERATURE IN DEGREES CELSIUS.

ALZ001>011-014-016>018-020-221800-
NORTH ALABAMA

CITY           SKY/WX    TMP DP  RH WIND       PRES   REMARKS
MUSCLE SHOALS  PTSUNNY   61  56  83 CALM      29.42F
HUNTSVILLE     LGT RAIN  62  58  86 E9        29.40F
DECATUR        CLOUDY    61  58  90 E6        29.41F
HALEYVILLE     CLOUDY    60  57  89 S5        29.41F
GADSDEN        CLOUDY    66  61  84 N5        29.37F
$$

ALZ012-013-022-023-030>036-040>044-221800-
WEST CENTRAL ALABAMA

CITY           SKY/WX    TMP DP  RH WIND       PRES   REMARKS
TUSCALOOSA     CLOUDY    62  60  93 S6        29.40F
$$

ALZ015-024>027-033>036-040>044-221800-
CENTRAL ALABAMA

CITY           SKY/WX    TMP DP  RH WIND       PRES   REMARKS
BIRMINGHAM     PTSUNNY   65  60  84 VRB3      29.37F
MONTGOMERY     CLOUDY    67  62  84 E10       29.37F HAZE
SHELBY CO ARPT PTSUNNY   66  62  87 VRB5      29.37F
MAXWELL AFB    CLOUDY    66  66 100 SE9       29.35F
GREENVILLE     LGT RAIN  68  64  87 E7        29.34F FOG
$$

ALZ019-021-028-029-037-038-045>048-221800-
EAST CENTRAL ALABAMA

CITY           SKY/WX    TMP DP  RH WIND       PRES   REMARKS
ANNISTON       CLOUDY    66  60  81 E10       29.39F
ALEXANDER CITY FOG       65  64  96 E7        29.41F VSB 3/4
AUBURN         CLOUDY    64  63  96 E12       29.45F FOG
$$

ALZ051>064-221800-
SOUTHWEST ALABAMA

CITY           SKY/WX    TMP DP  RH WIND       PRES   REMARKS
MOBILE         CLOUDY    59  53  80 W23G35    29.47S
BROOKLEY FIELD CLOUDY    62  58  86 NW22G33   29.44R
EVERGREEN      LGT RAIN  71  68  90 E12       29.31F FOG
$$

ALZ049-050-065>069-221800-
SOUTHEAST ALABAMA

CITY           SKY/WX    TMP DP  RH WIND       PRES   REMARKS
DOTHAN         TSTM      67  67 100 S14       29.42F VSB 3/4
OZARK          TSTM      66  66 100 S12       29.38F FOG
TROY           RAIN      68  67  96 CALM      29.38F FOG
EUFAULA        CLOUDY    70  66  87 E3        29.39F
$$




USA.gov is the U.S. government's official web portal to all federal, state and local government web resources and services.